Volver al catálogo

SL-12 DEB

LostHEO
NORAD 41642·DEBRIS·🇷🇺 Russia

Lanzado Dec 25, 2008 desde Baikonur Cosmodrome

Loading…

Próximos Pases (próximas 24 horas)

TLE

ObsoletoSource: Space-Track

Época: Feb 8, 2023, 23:26 UTC

1 41642U 08067N   23039.97680751  .00000856  00000-0  29377-2 0  9997
2 41642  65.3099 197.5425 5615945 307.1401  13.6266  4.35955345105143

Sigue SL-12 DEB en tiempo real con AllMySat

Download on the App Store